Location: Azul
(36.7830°S, 59.8500°W)
Time: 13:05:13
(UTC-03:00)

ISS - Pass Details

Date: 24 April 2018
Orbit: 402 x 409 km, 51.6° (Epoch: 15 August)

Event Time Altitude Azimuth Distance (km) Brightness Sun altitude
Rises 19:10:33 0° 339° (NNW) 2,355 0.5 -10.4°
Reaches altitude 10° 19:12:52 10° 353° (N) 1,498 -0.7 -10.8°
Maximum altitude 19:15:40 24° 49° (NE) 907 -2.4 -11.4°
Enters shadow 19:17:06 19° 86° (E) 1,094 -2.3 -11.7°
